Time,TemperatureF,DewpointF,PressureIn,WindDirection,WindDirectionDegrees,WindSpeedMPH,WindSpeedGustMPH,Humidity,HourlyPrecipIn,Conditions,Clouds,dailyrainin,SoftwareType,DateUTC
2013-03-07 00:03:00,36.2,7.0,29.94,South,190,11.0,14.0,29,0.00,,---,0.00,VWS V14.01,2013-03-07 07:03:00,
2013-03-07 00:08:00,36.1,6.9,29.93,SW,216,6.0,6.0,29,0.00,,---,0.00,VWS V14.01,2013-03-07 07:08:00,
2013-03-07 00:13:00,36.0,6.8,29.94,South,188,8.0,10.0,29,0.00,,---,0.00,VWS V14.01,2013-03-07 07:13:00,
2013-03-07 00:18:00,36.0,6.8,29.93,South,188,1.0,4.0,29,0.00,,---,0.00,VWS V14.01,2013-03-07 07:18:00,
2013-03-07 00:23:00,35.9,6.8,29.94,SW,216,4.0,7.0,29,0.00,,---,0.00,VWS V14.01,2013-03-07 07:23:00,
2013-03-07 00:28:00,35.7,7.3,29.93,SW,215,1.0,1.0,30,0.00,,---,0.00,VWS V14.01,2013-03-07 07:28:00,
2013-03-07 00:33:00,35.6,7.2,29.94,WSW,256,5.0,5.0,30,0.00,,---,0.00,VWS V14.01,2013-03-07 07:33:00,
2013-03-07 00:38:00,35.5,7.2,29.94,SW,222,8.0,12.0,30,0.00,,---,0.00,VWS V14.01,2013-03-07 07:38:00,
2013-03-07 00:43:00,35.6,6.5,29.94,SSW,209,11.0,11.0,29,0.00,,---,0.00,VWS V14.01,2013-03-07 07:43:00,
2013-03-07 00:48:00,35.6,7.2,29.93,South,188,0.0,4.0,30,0.00,,---,0.00,VWS V14.01,2013-03-07 07:48:00,
2013-03-07 00:53:00,35.5,7.2,29.94,SSW,209,2.0,8.0,30,0.00,,---,0.00,VWS V14.01,2013-03-07 07:53:00,
2013-03-07 00:59:00,35.3,7.7,29.94,WSW,240,6.0,6.0,31,0.00,,---,0.00,VWS V14.01,2013-03-07 07:59:00,
2013-03-07 01:04:00,34.9,6.6,29.94,SW,230,5.0,5.0,30,0.00,,---,0.00,VWS V14.01,2013-03-07 08:04:00,
2013-03-07 01:09:00,34.9,6.6,29.94,SW,215,2.0,5.0,30,0.00,,---,0.00,VWS V14.01,2013-03-07 08:09:00,
2013-03-07 01:14:00,34.8,7.3,29.93,ESE,107,0.0,0.0,31,0.00,,---,0.00,VWS V14.01,2013-03-07 08:14:00,
2013-03-07 01:19:00,34.7,6.4,29.94,South,169,4.0,9.0,30,0.00,,---,0.00,VWS V14.01,2013-03-07 08:19:00,
2013-03-07 01:24:00,34.8,7.3,29.94,SSW,213,2.0,2.0,31,0.00,,---,0.00,VWS V14.01,2013-03-07 08:24:00,
2013-03-07 01:29:00,34.8,6.5,29.94,SSW,209,4.0,4.0,30,0.00,,---,0.00,VWS V14.01,2013-03-07 08:29:00,
2013-03-07 01:34:00,34.9,7.3,29.94,WSW,247,0.0,1.0,31,0.00,,---,0.00,VWS V14.01,2013-03-07 08:34:00,
2013-03-07 01:39:00,34.9,7.3,29.94,WSW,241,4.0,4.0,31,0.00,,---,0.00,VWS V14.01,2013-03-07 08:39:00,
2013-03-07 01:44:00,34.9,6.6,29.94,SW,235,5.0,5.0,30,0.00,,---,0.00,VWS V14.01,2013-03-07 08:44:00,
2013-03-07 01:49:00,34.8,7.3,29.94,SW,228,1.0,5.0,31,0.00,,---,0.00,VWS V14.01,2013-03-07 08:49:00,
2013-03-07 01:54:00,34.8,7.3,29.94,SW,228,0.0,0.0,31,0.00,,---,0.00,VWS V14.01,2013-03-07 08:54:00,
2013-03-07 01:59:00,34.7,7.2,29.94,SW,228,0.0,0.0,31,0.00,,---,0.00,VWS V14.01,2013-03-07 08:59:00,
2013-03-07 02:04:00,34.7,7.2,29.94,SSW,209,2.0,4.0,31,0.00,,---,0.00,VWS V14.01,2013-03-07 09:04:00,
2013-03-07 02:09:00,34.6,7.1,29.94,SSW,197,0.0,1.0,31,0.00,,---,0.00,VWS V14.01,2013-03-07 09:09:00,
2013-03-07 02:15:00,34.5,8.4,29.94,East,98,0.0,1.0,33,0.00,,---,0.00,VWS V14.01,2013-03-07 09:15:00,
2013-03-07 02:20:00,34.2,7.4,29.94,East,98,1.0,3.0,32,0.00,,---,0.00,VWS V14.01,2013-03-07 09:20:00,
2013-03-07 02:25:00,34.2,8.1,29.93,East,98,1.0,5.0,33,0.00,,---,0.00,VWS V14.01,2013-03-07 09:25:00,
2013-03-07 02:30:00,34.5,7.7,29.93,SSE,162,0.0,2.0,32,0.00,,---,0.00,VWS V14.01,2013-03-07 09:30:00,
2013-03-07 02:35:00,34.6,7.8,29.93,SSE,157,3.0,8.0,32,0.00,,---,0.00,VWS V14.01,2013-03-07 09:35:00,
2013-03-07 02:40:00,34.6,7.8,29.93,South,170,0.0,4.0,32,0.00,,---,0.00,VWS V14.01,2013-03-07 09:40:00,
2013-03-07 02:45:00,34.5,8.4,29.93,South,173,0.0,2.0,33,0.00,,---,0.00,VWS V14.01,2013-03-07 09:45:00,
2013-03-07 02:50:00,34.4,8.3,29.93,SSW,198,4.0,8.0,33,0.00,,---,0.00,VWS V14.01,2013-03-07 09:50:00,
2013-03-07 02:56:00,34.2,8.1,29.93,SSW,194,5.0,9.0,33,0.00,,---,0.00,VWS V14.01,2013-03-07 09:56:00,
2013-03-07 03:01:00,34.0,8.6,29.93,South,186,6.0,9.0,34,0.00,,---,0.00,VWS V14.01,2013-03-07 10:01:00,
2013-03-07 03:06:00,34.1,8.7,29.93,South,188,1.0,2.0,34,0.00,,---,0.00,VWS V14.01,2013-03-07 10:06:00,
2013-03-07 03:11:00,34.5,8.4,29.93,SSE,160,3.0,4.0,33,0.00,,---,0.00,VWS V14.01,2013-03-07 10:11:00,
2013-03-07 03:16:00,34.7,8.6,29.93,SSW,200,1.0,1.0,33,0.00,,---,0.00,VWS V14.01,2013-03-07 10:16:00,
2013-03-07 03:21:00,34.6,8.5,29.93,South,179,3.0,5.0,33,0.00,,---,0.00,VWS V14.01,2013-03-07 10:21:00,
2013-03-07 03:26:00,34.4,8.3,29.93,SSE,159,5.0,7.0,33,0.00,,---,0.00,VWS V14.01,2013-03-07 10:26:00,
2013-03-07 03:31:00,34.4,8.3,29.93,South,171,4.0,7.0,33,0.00,,---,0.00,VWS V14.01,2013-03-07 10:31:00,
2013-03-07 03:36:00,34.5,9.0,29.93,South,179,3.0,6.0,34,0.00,,---,0.00,VWS V14.01,2013-03-07 10:36:00,
2013-03-07 03:41:00,34.6,9.1,29.94,SE,138,1.0,1.0,34,0.00,,---,0.00,VWS V14.01,2013-03-07 10:41:00,
2013-03-07 03:47:00,34.6,8.5,29.94,SE,138,0.0,0.0,33,0.00,,---,0.00,VWS V14.01,2013-03-07 10:47:00,
2013-03-07 03:52:00,34.4,8.9,29.94,SW,234,4.0,7.0,34,0.00,,---,0.00,VWS V14.01,2013-03-07 10:52:00,
2013-03-07 03:57:00,34.2,9.4,29.94,South,187,9.0,9.0,35,0.00,,---,0.00,VWS V14.01,2013-03-07 10:57:00,
2013-03-07 04:02:00,34.2,8.8,29.94,South,181,0.0,2.0,34,0.00,,---,0.00,VWS V14.01,2013-03-07 11:02:00,
2013-03-07 04:07:00,34.5,9.0,29.95,South,170,3.0,3.0,34,0.00,,---,0.00,VWS V14.01,2013-03-07 11:07:00,
2013-03-07 04:12:00,34.4,8.9,29.95,South,170,0.0,0.0,34,0.00,,---,0.00,VWS V14.01,2013-03-07 11:12:00,
2013-03-07 04:17:00,34.4,8.3,29.95,SSW,205,1.0,1.0,33,0.00,,---,0.00,VWS V14.01,2013-03-07 11:17:00,
2013-03-07 04:22:00,34.5,9.0,29.95,South,186,4.0,4.0,34,0.00,,---,0.00,VWS V14.01,2013-03-07 11:22:00,
2013-03-07 04:27:00,34.5,9.7,29.95,South,182,0.0,0.0,35,0.00,,---,0.00,VWS V14.01,2013-03-07 11:27:00,
2013-03-07 04:32:00,34.5,9.0,29.95,South,171,2.0,6.0,34,0.00,,---,0.00,VWS V14.01,2013-03-07 11:32:00,
2013-03-07 04:37:00,34.4,8.3,29.95,South,171,1.0,1.0,33,0.00,,---,0.00,VWS V14.01,2013-03-07 11:37:00,
2013-03-07 04:42:00,34.3,8.9,29.95,South,171,2.0,2.0,34,0.00,,---,0.00,VWS V14.01,2013-03-07 11:42:00,
2013-03-07 04:47:00,34.3,9.5,29.96,South,188,5.0,5.0,35,0.00,,---,0.00,VWS V14.01,2013-03-07 11:47:00,
2013-03-07 04:52:00,34.1,10.0,29.96,SSE,167,1.0,4.0,36,0.00,,---,0.00,VWS V14.01,2013-03-07 11:52:00,
2013-03-07 04:57:00,33.9,9.1,29.96,SSW,194,6.0,8.0,35,0.00,,---,0.00,VWS V14.01,2013-03-07 11:57:00,
2013-03-07 05:02:00,33.9,9.1,29.96,SSW,192,7.0,7.0,35,0.00,,---,0.00,VWS V14.01,2013-03-07 12:02:00,
2013-03-07 05:07:00,34.0,8.6,29.95,South,175,7.0,7.0,34,0.00,,---,0.00,VWS V14.01,2013-03-07 12:07:00,
2013-03-07 05:12:00,34.0,8.6,29.95,SSE,164,4.0,4.0,34,0.00,,---,0.00,VWS V14.01,2013-03-07 12:12:00,
2013-03-07 05:17:00,33.9,9.1,29.95,SSW,210,7.0,10.0,35,0.00,,---,0.00,VWS V14.01,2013-03-07 12:17:00,
2013-03-07 05:22:00,33.9,8.5,29.95,SSE,157,6.0,8.0,34,0.00,,---,0.00,VWS V14.01,2013-03-07 12:22:00,
2013-03-07 05:27:00,34.0,9.2,29.95,SE,138,2.0,4.0,35,0.00,,---,0.00,VWS V14.01,2013-03-07 12:27:00,
2013-03-07 05:32:00,34.1,9.3,29.95,SE,144,6.0,7.0,35,0.00,,---,0.00,VWS V14.01,2013-03-07 12:32:00,
2013-03-07 05:37:00,34.1,8.7,29.95,SE,138,2.0,4.0,34,0.00,,---,0.00,VWS V14.01,2013-03-07 12:37:00,
2013-03-07 05:42:00,33.9,8.5,29.95,SE,137,4.0,6.0,34,0.00,,---,0.00,VWS V14.01,2013-03-07 12:42:00,
2013-03-07 05:48:00,33.5,8.8,29.95,SSE,157,8.0,9.0,35,0.00,,---,0.00,VWS V14.01,2013-03-07 12:48:00,
2013-03-07 05:53:00,33.6,8.2,29.95,SSE,161,4.0,8.0,34,0.00,,---,0.00,VWS V14.01,2013-03-07 12:53:00,
2013-03-07 05:58:00,34.1,8.0,29.95,SE,135,9.0,11.0,33,0.00,,---,0.00,VWS V14.01,2013-03-07 12:58:00,
2013-03-07 06:03:00,34.6,8.5,29.96,South,190,5.0,11.0,33,0.00,,---,0.00,VWS V14.01,2013-03-07 13:03:00,
2013-03-07 06:08:00,35.0,8.1,29.96,SE,128,12.0,13.0,32,0.00,,---,0.00,VWS V14.01,2013-03-07 13:08:00,
2013-03-07 06:13:00,35.3,8.4,29.95,SSW,205,9.0,11.0,32,0.00,,---,0.00,VWS V14.01,2013-03-07 13:13:00,
2013-03-07 06:18:00,35.3,7.0,29.96,SE,134,5.0,11.0,30,0.00,,---,0.00,VWS V14.01,2013-03-07 13:18:00,
2013-03-07 06:23:00,35.4,7.1,29.96,SSW,194,5.0,8.0,30,0.00,,---,0.00,VWS V14.01,2013-03-07 13:23:00,
2013-03-07 06:28:00,35.4,6.3,29.96,South,169,6.0,11.0,29,0.00,,---,0.00,VWS V14.01,2013-03-07 13:28:00,
2013-03-07 06:33:00,35.3,7.0,29.97,South,190,5.0,8.0,30,0.00,,---,0.00,VWS V14.01,2013-03-07 13:33:00,
2013-03-07 06:38:00,35.2,6.9,29.97,SSW,194,5.0,10.0,30,0.00,,---,0.00,VWS V14.01,2013-03-07 13:38:00,
2013-03-07 06:43:00,35.3,7.0,29.97,South,176,6.0,6.0,30,0.00,,---,0.00,VWS V14.01,2013-03-07 13:43:00,
2013-03-07 06:48:00,35.3,7.0,29.98,SSE,150,7.0,10.0,30,0.00,,---,0.00,VWS V14.01,2013-03-07 13:48:00,
2013-03-07 06:53:00,35.3,6.2,29.98,South,173,4.0,8.0,29,0.00,,---,0.00,VWS V14.01,2013-03-07 13:53:00,
2013-03-07 06:58:00,35.2,7.6,29.98,SSE,150,3.0,5.0,31,0.00,,---,0.00,VWS V14.01,2013-03-07 13:58:00,
2013-03-07 07:03:00,35.0,7.4,29.99,SSE,155,0.0,5.0,31,0.00,,---,0.00,VWS V14.01,2013-03-07 14:03:00,
2013-03-07 07:08:00,34.7,7.2,29.99,SSE,155,3.0,4.0,31,0.00,,---,0.00,VWS V14.01,2013-03-07 14:08:00,
2013-03-07 07:13:00,34.6,7.8,29.99,SSE,163,1.0,5.0,32,0.00,,---,0.00,VWS V14.01,2013-03-07 14:13:00,
2013-03-07 07:18:00,34.5,7.0,29.99,SSE,163,6.0,6.0,31,0.00,,---,0.00,VWS V14.01,2013-03-07 14:18:00,
2013-03-07 07:23:00,34.6,7.8,30.00,SSE,163,1.0,3.0,32,0.00,,---,0.00,VWS V14.01,2013-03-07 14:23:00,
2013-03-07 07:28:00,34.6,7.1,30.00,SSE,163,4.0,4.0,31,0.00,,---,0.00,VWS V14.01,2013-03-07 14:28:00,
2013-03-07 07:33:00,34.8,6.5,30.00,SW,234,7.0,8.0,30,0.00,,---,0.00,VWS V14.01,2013-03-07 14:33:00,
2013-03-07 07:38:00,34.9,7.3,30.00,SW,234,4.0,5.0,31,0.00,,---,0.00,VWS V14.01,2013-03-07 14:38:00,
2013-03-07 07:43:00,35.0,7.4,30.01,SW,234,0.0,1.0,31,0.00,,---,0.00,VWS V14.01,2013-03-07 14:43:00,
2013-03-07 07:48:00,35.5,6.4,30.01,SSW,212,3.0,5.0,29,0.00,,---,0.00,VWS V14.01,2013-03-07 14:48:00,
2013-03-07 07:53:00,36.4,7.2,30.01,SSW,212,1.0,2.0,29,0.00,,---,0.00,VWS V14.01,2013-03-07 14:53:00,
2013-03-07 07:58:00,37.2,7.1,30.02,SSW,213,0.0,2.0,28,0.00,,---,0.00,VWS V14.01,2013-03-07 14:58:00,
2013-03-07 08:03:00,38.3,8.1,30.02,ESE,111,3.0,5.0,28,0.00,,---,0.00,VWS V14.01,2013-03-07 15:03:00,
2013-03-07 08:08:00,39.1,8.8,30.02,ESE,111,0.0,0.0,28,0.00,,---,0.00,VWS V14.01,2013-03-07 15:08:00,
2013-03-07 08:13:00,40.0,7.0,30.02,ESE,111,1.0,1.0,25,0.00,,---,0.00,VWS V14.01,2013-03-07 15:13:00,
2013-03-07 08:18:00,40.5,9.2,30.02,ESE,111,2.0,2.0,27,0.00,,---,0.00,VWS V14.01,2013-03-07 15:18:00,
2013-03-07 08:23:00,40.8,6.8,30.02,ESE,111,2.0,2.0,24,0.00,,---,0.00,VWS V14.01,2013-03-07 15:23:00,
2013-03-07 08:28:00,41.0,7.9,30.02,ESE,111,0.0,0.0,25,0.00,,---,0.00,VWS V14.01,2013-03-07 15:28:00,
2013-03-07 08:33:00,41.4,8.2,30.02,ESE,111,0.0,0.0,25,0.00,,---,0.00,VWS V14.01,2013-03-07 15:33:00,
2013-03-07 08:38:00,42.1,7.9,30.02,ESE,111,5.0,6.0,24,0.00,,---,0.00,VWS V14.01,2013-03-07 15:38:00,
2013-03-07 08:43:00,42.1,7.9,30.02,ESE,111,2.0,3.0,24,0.00,,---,0.00,VWS V14.01,2013-03-07 15:43:00,
2013-03-07 08:48:00,42.1,7.9,30.02,ESE,111,4.0,5.0,24,0.00,,---,0.00,VWS V14.01,2013-03-07 15:48:00,
2013-03-07 08:53:00,42.0,7.8,30.02,ESE,110,5.0,6.0,24,0.00,,---,0.00,VWS V14.01,2013-03-07 15:53:00,
2013-03-07 08:59:00,42.0,8.7,30.02,ESE,115,5.0,5.0,25,0.00,,---,0.00,VWS V14.01,2013-03-07 15:59:00,
2013-03-07 09:04:00,42.1,7.9,30.02,ESE,114,6.0,7.0,24,0.00,,---,0.00,VWS V14.01,2013-03-07 16:04:00,
2013-03-07 09:09:00,42.5,7.3,30.02,ESE,113,4.0,6.0,23,0.00,,---,0.00,VWS V14.01,2013-03-07 16:09:00,
2013-03-07 09:14:00,42.7,7.5,30.02,ESE,105,7.0,9.0,23,0.00,,---,0.00,VWS V14.01,2013-03-07 16:14:00,
2013-03-07 09:19:00,43.0,7.8,30.02,ESE,115,5.0,6.0,23,0.00,,---,0.00,VWS V14.01,2013-03-07 16:19:00,
2013-03-07 09:24:00,43.3,8.9,30.02,ESE,108,6.0,8.0,24,0.00,,---,0.00,VWS V14.01,2013-03-07 16:24:00,
2013-03-07 09:29:00,43.6,8.3,30.02,East,96,5.0,6.0,23,0.00,,---,0.00,VWS V14.01,2013-03-07 16:29:00,
2013-03-07 09:34:00,43.8,7.4,30.02,East,92,6.0,8.0,22,0.00,,---,0.00,VWS V14.01,2013-03-07 16:34:00,
2013-03-07 09:39:00,43.6,9.2,30.02,East,84,5.0,6.0,24,0.00,,---,0.00,VWS V14.01,2013-03-07 16:39:00,
2013-03-07 09:44:00,44.1,7.7,30.02,East,94,4.0,5.0,22,0.00,,---,0.00,VWS V14.01,2013-03-07 16:44:00,
2013-03-07 09:49:00,44.7,8.2,30.02,SE,136,8.0,8.0,22,0.00,,---,0.00,VWS V14.01,2013-03-07 16:49:00,
2013-03-07 09:54:00,45.0,9.4,30.02,ESE,111,4.0,8.0,23,0.00,,---,0.00,VWS V14.01,2013-03-07 16:54:00,
2013-03-07 09:59:00,45.1,8.5,30.02,SE,125,10.0,11.0,22,0.00,,---,0.00,VWS V14.01,2013-03-07 16:59:00,
2013-03-07 10:04:00,45.0,6.4,30.01,ESE,111,4.0,4.0,20,0.00,,---,0.00,VWS V14.01,2013-03-07 17:04:00,
2013-03-07 10:09:00,45.0,8.5,30.02,ESE,107,9.0,10.0,22,0.00,,---,0.00,VWS V14.01,2013-03-07 17:09:00,
2013-03-07 10:14:00,45.5,10.8,30.02,ESE,123,7.0,8.0,24,0.00,,---,0.00,VWS V14.01,2013-03-07 17:14:00,
2013-03-07 10:19:00,45.9,8.2,30.02,SE,138,1.0,8.0,21,0.00,,---,0.00,VWS V14.01,2013-03-07 17:19:00,
2013-03-07 10:24:00,46.2,9.5,30.02,ESE,106,14.0,14.0,22,0.00,,---,0.00,VWS V14.01,2013-03-07 17:24:00,
2013-03-07 10:29:00,46.1,8.4,30.02,East,101,6.0,8.0,21,0.00,,---,0.00,VWS V14.01,2013-03-07 17:29:00,
2013-03-07 10:35:00,46.0,8.3,30.02,ESE,115,7.0,11.0,21,0.00,,---,0.00,VWS V14.01,2013-03-07 17:35:00,
2013-03-07 10:40:00,45.6,9.0,30.02,ESE,121,4.0,9.0,22,0.00,,---,0.00,VWS V14.01,2013-03-07 17:40:00,
2013-03-07 10:45:00,45.7,9.1,30.02,ESE,112,10.0,16.0,22,0.00,,---,0.00,VWS V14.01,2013-03-07 17:45:00,
2013-03-07 10:50:00,45.8,10.1,30.02,SE,129,11.0,13.0,23,0.00,,---,0.00,VWS V14.01,2013-03-07 17:50:00,
2013-03-07 10:55:00,46.3,8.5,30.02,East,89,11.0,14.0,21,0.00,,---,0.00,VWS V14.01,2013-03-07 17:55:00,
2013-03-07 11:00:00,46.7,10.9,30.02,East,101,8.0,13.0,23,0.00,,---,0.00,VWS V14.01,2013-03-07 18:00:00,
2013-03-07 11:05:00,47.1,10.2,30.02,East,94,9.0,11.0,22,0.00,,---,0.00,VWS V14.01,2013-03-07 18:05:00,
2013-03-07 11:10:00,47.1,10.2,30.02,SE,127,6.0,9.0,22,0.00,,---,0.00,VWS V14.01,2013-03-07 18:10:00,
2013-03-07 11:15:00,47.4,8.4,30.02,East,98,8.0,8.0,20,0.00,,---,0.00,VWS V14.01,2013-03-07 18:15:00,
2013-03-07 11:20:00,47.6,10.6,30.02,ESE,113,8.0,9.0,22,0.00,,---,0.00,VWS V14.01,2013-03-07 18:20:00,
2013-03-07 11:25:00,47.4,11.5,30.02,ESE,115,18.0,18.0,23,0.00,,---,0.00,VWS V14.01,2013-03-07 18:25:00,
2013-03-07 11:30:00,47.9,10.9,30.02,ESE,121,8.0,8.0,22,0.00,,---,0.00,VWS V14.01,2013-03-07 18:30:00,
2013-03-07 11:35:00,48.5,10.4,30.02,ESE,113,7.0,8.0,21,0.00,,---,0.00,VWS V14.01,2013-03-07 18:35:00,
2013-03-07 11:40:00,48.3,10.2,30.02,East,98,7.0,10.0,21,0.00,,---,0.00,VWS V14.01,2013-03-07 18:40:00,
2013-03-07 11:45:00,48.2,11.1,30.01,ESE,112,11.0,13.0,22,0.00,,---,0.00,VWS V14.01,2013-03-07 18:45:00,
2013-03-07 11:50:00,47.9,10.9,30.02,ESE,113,5.0,11.0,22,0.00,,---,0.00,VWS V14.01,2013-03-07 18:50:00,
2013-03-07 11:55:00,47.0,9.1,30.01,ESE,118,10.0,12.0,21,0.00,,---,0.00,VWS V14.01,2013-03-07 18:55:00,
2013-03-07 12:00:00,46.3,9.6,30.01,ESE,106,8.0,12.0,22,0.00,,---,0.00,VWS V14.01,2013-03-07 19:00:00,
2013-03-07 12:05:00,46.3,9.6,30.01,SE,125,0.0,9.0,22,0.00,,---,0.00,VWS V14.01,2013-03-07 19:05:00,
2013-03-07 12:10:00,46.7,10.9,30.01,ESE,120,11.0,11.0,23,0.00,,---,0.00,VWS V14.01,2013-03-07 19:10:00,
2013-03-07 12:16:00,46.5,9.7,30.00,ESE,117,8.0,14.0,22,0.00,,---,0.00,VWS V14.01,2013-03-07 19:16:00,
2013-03-07 12:21:00,45.9,6.0,30.00,ESE,105,1.0,5.0,19,0.00,,---,0.00,VWS V14.01,2013-03-07 19:21:00,
2013-03-07 12:26:00,45.7,9.1,30.00,East,93,11.0,13.0,22,0.00,,---,0.00,VWS V14.01,2013-03-07 19:26:00,
2013-03-07 12:31:00,45.6,9.9,29.99,East,82,9.0,15.0,23,0.00,,---,0.00,VWS V14.01,2013-03-07 19:31:00,
2013-03-07 12:36:00,45.2,10.6,30.00,East,96,13.0,16.0,24,0.00,,---,0.00,VWS V14.01,2013-03-07 19:36:00,
2013-03-07 12:41:00,44.7,11.1,29.99,ENE,60,6.0,9.0,25,0.00,,---,0.00,VWS V14.01,2013-03-07 19:41:00,
2013-03-07 12:46:00,45.3,11.6,29.99,East,95,18.0,18.0,25,0.00,,---,0.00,VWS V14.01,2013-03-07 19:46:00,
2013-03-07 12:51:00,46.0,11.2,29.99,ESE,123,8.0,11.0,24,0.00,,---,0.00,VWS V14.01,2013-03-07 19:51:00,
2013-03-07 12:56:00,47.2,13.2,29.98,East,101,18.0,18.0,25,0.00,,---,0.00,VWS V14.01,2013-03-07 19:56:00,
2013-03-07 13:01:00,47.7,12.7,29.98,SE,138,6.0,11.0,24,0.00,,---,0.00,VWS V14.01,2013-03-07 20:01:00,
2013-03-07 13:06:00,48.3,13.2,29.98,ESE,105,8.0,13.0,24,0.00,,---,0.00,VWS V14.01,2013-03-07 20:06:00,
2013-03-07 13:11:00,48.2,13.1,29.97,ESE,108,6.0,13.0,24,0.00,,---,0.00,VWS V14.01,2013-03-07 20:11:00,
2013-03-07 13:16:00,48.6,13.5,29.97,ESE,105,10.0,15.0,24,0.00,,---,0.00,VWS V14.01,2013-03-07 20:16:00,
2013-03-07 13:22:00,48.8,13.6,29.97,ESE,112,7.0,14.0,24,0.00,,---,0.00,VWS V14.01,2013-03-07 20:22:00,
2013-03-07 13:27:00,48.7,12.6,29.97,ESE,105,9.0,10.0,23,0.00,,---,0.00,VWS V14.01,2013-03-07 20:27:00,
2013-03-07 13:32:00,48.7,13.5,29.97,East,101,9.0,9.0,24,0.00,,---,0.00,VWS V14.01,2013-03-07 20:32:00,
2013-03-07 13:37:00,48.7,13.5,29.97,East,93,10.0,13.0,24,0.00,,---,0.00,VWS V14.01,2013-03-07 20:37:00,
2013-03-07 13:42:00,47.7,12.7,29.97,East,92,2.0,8.0,24,0.00,,---,0.00,VWS V14.01,2013-03-07 20:42:00,
2013-03-07 13:47:00,47.9,11.9,29.96,ENE,66,6.0,9.0,23,0.00,,---,0.00,VWS V14.01,2013-03-07 20:47:00,
2013-03-07 13:52:00,48.6,15.3,29.96,SE,135,8.0,8.0,26,0.00,,---,0.00,VWS V14.01,2013-03-07 20:52:00,
2013-03-07 13:57:00,49.5,14.2,29.96,ESE,113,5.0,8.0,24,0.00,,---,0.00,VWS V14.01,2013-03-07 20:57:00,
2013-03-07 14:02:00,49.5,13.2,29.96,SE,127,10.0,12.0,23,0.00,,---,0.00,VWS V14.01,2013-03-07 21:02:00,
2013-03-07 14:07:00,49.7,13.4,29.96,SE,144,6.0,10.0,23,0.00,,---,0.00,VWS V14.01,2013-03-07 21:07:00,
2013-03-07 14:12:00,49.4,14.1,29.96,East,80,11.0,11.0,24,0.00,,---,0.00,VWS V14.01,2013-03-07 21:12:00,
2013-03-07 14:17:00,49.1,12.9,29.96,SE,128,6.0,7.0,23,0.00,,---,0.00,VWS V14.01,2013-03-07 21:17:00,
2013-03-07 14:22:00,49.0,11.8,29.96,ESE,102,4.0,8.0,22,0.00,,---,0.00,VWS V14.01,2013-03-07 21:22:00,
2013-03-07 14:27:00,48.5,13.4,29.96,ESE,109,7.0,10.0,24,0.00,,---,0.00,VWS V14.01,2013-03-07 21:27:00,
2013-03-07 14:32:00,48.6,12.5,29.97,ESE,109,10.0,10.0,23,0.00,,---,0.00,VWS V14.01,2013-03-07 21:32:00,
2013-03-07 14:37:00,48.9,13.7,29.97,East,95,10.0,10.0,24,0.00,,---,0.00,VWS V14.01,2013-03-07 21:37:00,
2013-03-07 14:42:00,48.2,11.1,29.97,East,97,11.0,13.0,22,0.00,,---,0.00,VWS V14.01,2013-03-07 21:42:00,
2013-03-07 14:47:00,47.3,12.4,29.97,ESE,117,9.0,10.0,24,0.00,,---,0.00,VWS V14.01,2013-03-07 21:47:00,
2013-03-07 14:52:00,47.6,13.5,29.97,North,11,0.0,8.0,25,0.00,,---,0.00,VWS V14.01,2013-03-07 21:52:00,
2013-03-07 14:57:00,47.8,11.8,29.97,NE,48,7.0,13.0,23,0.00,,---,0.00,VWS V14.01,2013-03-07 21:57:00,
2013-03-07 15:02:00,47.8,11.8,29.97,ENE,67,6.0,8.0,23,0.00,,---,0.00,VWS V14.01,2013-03-07 22:02:00,
2013-03-07 15:07:00,47.7,10.7,29.97,ENE,75,6.0,12.0,22,0.00,,---,0.00,VWS V14.01,2013-03-07 22:07:00,
2013-03-07 15:12:00,47.4,10.5,29.97,NE,48,7.0,7.0,22,0.00,,---,0.00,VWS V14.01,2013-03-07 22:12:00,
2013-03-07 15:17:00,47.5,13.4,29.97,ENE,69,12.0,12.0,25,0.00,,---,0.00,VWS V14.01,2013-03-07 22:17:00,
2013-03-07 15:22:00,47.8,12.8,29.97,NNE,26,6.0,8.0,24,0.00,,---,0.00,VWS V14.01,2013-03-07 22:22:00,
2013-03-07 15:28:00,47.8,12.8,29.97,NNE,30,4.0,8.0,24,0.00,,---,0.00,VWS V14.01,2013-03-07 22:28:00,
2013-03-07 15:33:00,47.7,13.6,29.98,NE,38,9.0,9.0,25,0.00,,---,0.00,VWS V14.01,2013-03-07 22:33:00,
2013-03-07 15:38:00,47.2,14.1,29.98,East,81,4.0,8.0,26,0.00,,---,0.00,VWS V14.01,2013-03-07 22:38:00,
2013-03-07 15:43:00,46.5,14.3,29.98,NNE,20,6.0,11.0,27,0.00,,---,0.00,VWS V14.01,2013-03-07 22:43:00,
2013-03-07 15:48:00,46.1,13.1,29.97,East,86,5.0,8.0,26,0.00,,---,0.00,VWS V14.01,2013-03-07 22:48:00,
2013-03-07 15:53:00,46.0,13.9,29.97,NE,49,7.0,9.0,27,0.00,,---,0.00,VWS V14.01,2013-03-07 22:53:00,
2013-03-07 15:58:00,45.7,12.8,29.98,NE,50,2.0,8.0,26,0.00,,---,0.00,VWS V14.01,2013-03-07 22:58:00,
2013-03-07 16:03:00,45.4,13.4,29.98,NE,52,2.0,5.0,27,0.00,,---,0.00,VWS V14.01,2013-03-07 23:03:00,
2013-03-07 16:08:00,45.7,12.8,29.98,North,5,6.0,9.0,26,0.00,,---,0.00,VWS V14.01,2013-03-07 23:08:00,
2013-03-07 16:13:00,45.9,13.8,29.97,ENE,67,4.0,7.0,27,0.00,,---,0.00,VWS V14.01,2013-03-07 23:13:00,
2013-03-07 16:18:00,45.6,13.6,29.97,NE,55,3.0,7.0,27,0.00,,---,0.00,VWS V14.01,2013-03-07 23:18:00,
2013-03-07 16:23:00,45.4,13.4,29.97,East,88,2.0,5.0,27,0.00,,---,0.00,VWS V14.01,2013-03-07 23:23:00,
2013-03-07 16:28:00,45.4,15.0,29.98,East,79,1.0,4.0,29,0.00,,---,0.00,VWS V14.01,2013-03-07 23:28:00,
2013-03-07 16:33:00,45.6,15.2,29.98,NNE,28,4.0,5.0,29,0.00,,---,0.00,VWS V14.01,2013-03-07 23:33:00,
2013-03-07 16:38:00,46.0,15.5,29.98,NE,45,2.0,2.0,29,0.00,,---,0.00,VWS V14.01,2013-03-07 23:38:00,
2013-03-07 16:43:00,46.0,17.1,29.98,NE,40,5.0,8.0,31,0.00,,---,0.00,VWS V14.01,2013-03-07 23:43:00,
2013-03-07 16:48:00,45.8,16.9,29.98,NE,44,1.0,4.0,31,0.00,,---,0.00,VWS V14.01,2013-03-07 23:48:00,
2013-03-07 16:53:00,45.5,16.6,29.98,NE,55,1.0,3.0,31,0.00,,---,0.00,VWS V14.01,2013-03-07 23:53:00,
2013-03-07 16:58:00,45.4,17.3,29.98,NNE,29,3.0,7.0,32,0.00,,---,0.00,VWS V14.01,2013-03-07 23:58:00,
2013-03-07 17:04:00,45.6,18.2,29.99,NNW,345,0.0,5.0,33,0.00,,---,0.00,VWS V14.01,2013-03-08 00:04:00,
2013-03-07 17:09:00,45.6,18.2,29.99,WSW,252,4.0,5.0,33,0.00,,---,0.00,VWS V14.01,2013-03-08 00:09:00,
2013-03-07 17:14:00,45.8,18.4,29.99,NE,41,0.0,5.0,33,0.00,,---,0.00,VWS V14.01,2013-03-08 00:14:00,
2013-03-07 17:19:00,45.8,19.0,29.99,NNW,348,6.0,9.0,34,0.00,,---,0.00,VWS V14.01,2013-03-08 00:19:00,
2013-03-07 17:24:00,45.5,18.8,29.99,NNW,343,6.0,7.0,34,0.00,,---,0.00,VWS V14.01,2013-03-08 00:24:00,
2013-03-07 17:29:00,45.0,18.3,29.99,North,355,1.0,9.0,34,0.00,,---,0.00,VWS V14.01,2013-03-08 00:29:00,
2013-03-07 17:34:00,44.3,18.4,29.99,NNW,338,1.0,8.0,35,0.00,,---,0.00,VWS V14.01,2013-03-08 00:34:00,
2013-03-07 17:39:00,43.4,18.2,29.99,NNE,25,1.0,8.0,36,0.00,,---,0.00,VWS V14.01,2013-03-08 00:39:00,
2013-03-07 17:44:00,42.6,18.2,29.99,NNE,12,7.0,9.0,37,0.00,,---,0.00,VWS V14.01,2013-03-08 00:44:00,
2013-03-07 17:49:00,41.7,18.0,29.99,WNW,301,5.0,6.0,38,0.00,,---,0.00,VWS V14.01,2013-03-08 00:49:00,
2013-03-07 17:54:00,40.9,17.9,29.99,NNW,327,6.0,11.0,39,0.00,,---,0.00,VWS V14.01,2013-03-08 00:54:00,
2013-03-07 17:59:00,40.2,17.8,30.00,NNW,328,10.0,10.0,40,0.00,,---,0.00,VWS V14.01,2013-03-08 00:59:00,
2013-03-07 18:04:00,39.6,17.9,30.00,NNW,345,2.0,4.0,41,0.00,,---,0.00,VWS V14.01,2013-03-08 01:04:00,
2013-03-07 18:09:00,39.1,18.0,30.00,North,355,6.0,7.0,42,0.00,,---,0.00,VWS V14.01,2013-03-08 01:09:00,
2013-03-07 18:14:00,38.7,18.1,30.00,NW,317,9.0,10.0,43,0.00,,---,0.00,VWS V14.01,2013-03-08 01:14:00,
2013-03-07 18:20:00,38.3,17.8,30.00,NNW,327,10.0,11.0,43,0.00,,---,0.00,VWS V14.01,2013-03-08 01:20:00,
2013-03-07 18:25:00,38.1,18.1,30.00,NNE,24,6.0,9.0,44,0.00,,---,0.00,VWS V14.01,2013-03-08 01:25:00,
2013-03-07 18:30:00,37.8,17.9,30.00,NNW,347,6.0,9.0,44,0.00,,---,0.00,VWS V14.01,2013-03-08 01:30:00,
2013-03-07 18:35:00,37.7,17.8,30.00,NNW,336,9.0,9.0,44,0.00,,---,0.00,VWS V14.01,2013-03-08 01:35:00,
2013-03-07 18:40:00,37.6,17.7,30.00,NW,325,8.0,11.0,44,0.00,,---,0.00,VWS V14.01,2013-03-08 01:40:00,
2013-03-07 18:46:00,37.5,18.1,30.00,NNE,24,7.0,9.0,45,0.00,,---,0.00,VWS V14.01,2013-03-08 01:46:00,
2013-03-07 18:51:00,37.4,18.0,30.00,NW,315,5.0,6.0,45,0.00,,---,0.00,VWS V14.01,2013-03-08 01:51:00,
2013-03-07 18:56:00,37.2,17.8,30.00,WNW,292,5.0,9.0,45,0.00,,---,0.00,VWS V14.01,2013-03-08 01:56:00,
2013-03-07 19:01:00,37.1,17.7,30.00,NNW,334,7.0,7.0,45,0.00,,---,0.00,VWS V14.01,2013-03-08 02:01:00,
2013-03-07 19:06:00,36.8,18.0,30.00,NNW,344,5.0,5.0,46,0.00,,---,0.00,VWS V14.01,2013-03-08 02:06:00,
2013-03-07 19:11:00,36.6,17.8,30.00,NNW,348,1.0,6.0,46,0.00,,---,0.00,VWS V14.01,2013-03-08 02:11:00,
2013-03-07 19:16:00,36.5,17.7,30.00,NNW,336,4.0,6.0,46,0.00,,---,0.00,VWS V14.01,2013-03-08 02:16:00,
2013-03-07 19:21:00,36.4,17.6,30.00,NW,324,4.0,8.0,46,0.00,,---,0.00,VWS V14.01,2013-03-08 02:21:00,
2013-03-07 19:26:00,36.1,17.3,30.00,NE,44,4.0,4.0,46,0.00,,---,0.00,VWS V14.01,2013-03-08 02:26:00,
2013-03-07 19:31:00,35.7,17.5,30.00,WNW,286,5.0,6.0,47,0.00,,---,0.00,VWS V14.01,2013-03-08 02:31:00,
2013-03-07 19:36:00,35.3,17.6,30.00,NNW,339,5.0,5.0,48,0.00,,---,0.00,VWS V14.01,2013-03-08 02:36:00,
2013-03-07 19:41:00,34.9,17.2,30.00,West,267,3.0,5.0,48,0.00,,---,0.00,VWS V14.01,2013-03-08 02:41:00,
2013-03-07 19:46:00,34.7,17.0,30.00,West,265,2.0,4.0,48,0.00,,---,0.00,VWS V14.01,2013-03-08 02:46:00,
2013-03-07 19:51:00,34.5,17.3,30.00,West,269,2.0,5.0,49,0.00,,---,0.00,VWS V14.01,2013-03-08 02:51:00,
2013-03-07 19:57:00,34.1,17.4,30.01,WNW,284,3.0,4.0,50,0.00,,---,0.00,VWS V14.01,2013-03-08 02:57:00,
2013-03-07 20:02:00,33.9,17.2,30.01,West,273,2.0,2.0,50,0.00,,---,0.00,VWS V14.01,2013-03-08 03:02:00,
2013-03-07 20:07:00,33.6,17.0,30.01,West,273,2.0,2.0,50,0.00,,---,0.00,VWS V14.01,2013-03-08 03:07:00,
2013-03-07 20:12:00,33.4,17.7,30.02,WNW,285,6.0,6.0,52,0.00,,---,0.00,VWS V14.01,2013-03-08 03:12:00,
2013-03-07 20:17:00,33.4,17.2,30.01,West,277,3.0,3.0,51,0.00,,---,0.00,VWS V14.01,2013-03-08 03:17:00,
2013-03-07 20:22:00,33.2,17.0,30.02,West,277,4.0,4.0,51,0.00,,---,0.00,VWS V14.01,2013-03-08 03:22:00,
2013-03-07 20:27:00,33.0,16.9,30.02,West,277,1.0,1.0,51,0.00,,---,0.00,VWS V14.01,2013-03-08 03:27:00,
2013-03-07 20:32:00,32.9,16.8,30.01,West,277,0.0,0.0,51,0.00,,---,0.00,VWS V14.01,2013-03-08 03:32:00,
2013-03-07 20:37:00,32.9,16.8,30.02,West,277,1.0,2.0,51,0.00,,---,0.00,VWS V14.01,2013-03-08 03:37:00,
2013-03-07 20:42:00,33.1,16.5,30.02,NW,321,1.0,2.0,50,0.00,,---,0.00,VWS V14.01,2013-03-08 03:42:00,
2013-03-07 20:47:00,33.3,16.2,30.02,NW,321,0.0,0.0,49,0.00,,---,0.00,VWS V14.01,2013-03-08 03:47:00,
2013-03-07 20:52:00,33.4,17.2,30.02,NW,321,0.0,2.0,51,0.00,,---,0.00,VWS V14.01,2013-03-08 03:52:00,
2013-03-07 20:57:00,33.1,17.0,30.02,West,267,5.0,5.0,51,0.00,,---,0.00,VWS V14.01,2013-03-08 03:57:00,
2013-03-07 21:02:00,32.8,17.1,30.02,WNW,283,4.0,4.0,52,0.00,,---,0.00,VWS V14.01,2013-03-08 04:02:00,
2013-03-07 21:07:00,32.5,16.9,30.03,West,279,1.0,4.0,52,0.00,,---,0.00,VWS V14.01,2013-03-08 04:07:00,
2013-03-07 21:12:00,32.4,16.8,30.03,West,278,1.0,2.0,52,0.00,,---,0.00,VWS V14.01,2013-03-08 04:12:00,
2013-03-07 21:18:00,32.3,16.7,30.03,West,278,2.0,4.0,52,0.00,,---,0.00,VWS V14.01,2013-03-08 04:18:00,
2013-03-07 21:23:00,32.1,16.5,30.03,West,278,2.0,2.0,52,0.00,,---,0.00,VWS V14.01,2013-03-08 04:23:00,
2013-03-07 21:28:00,32.0,16.4,30.03,West,278,0.0,0.0,52,0.00,,---,0.00,VWS V14.01,2013-03-08 04:28:00,
2013-03-07 21:33:00,32.0,16.4,30.03,West,278,2.0,4.0,52,0.00,,---,0.00,VWS V14.01,2013-03-08 04:33:00,
2013-03-07 21:38:00,31.9,15.8,30.04,West,278,3.0,3.0,51,0.00,,---,0.00,VWS V14.01,2013-03-08 04:38:00,
2013-03-07 21:43:00,31.9,15.4,30.03,West,278,2.0,2.0,50,0.00,,---,0.00,VWS V14.01,2013-03-08 04:43:00,
2013-03-07 21:48:00,32.1,15.1,30.03,West,278,2.0,2.0,49,0.00,,---,0.00,VWS V14.01,2013-03-08 04:48:00,
2013-03-07 21:53:00,32.2,15.2,30.04,SW,236,2.0,4.0,49,0.00,,---,0.00,VWS V14.01,2013-03-08 04:53:00,
2013-03-07 21:58:00,32.1,15.6,30.04,WNW,303,4.0,4.0,50,0.00,,---,0.00,VWS V14.01,2013-03-08 04:58:00,
2013-03-07 22:00:00,32.0,15.0,30.04,WNW,303,1.0,1.0,49,0.00,,---,0.00,VWS V14.01,2013-03-08 05:00:00,
2013-03-07 22:01:00,32.0,14.6,30.04,WNW,303,4.0,4.0,48,0.00,,---,0.00,VWS V14.01,2013-03-08 05:01:00,
2013-03-07 22:06:00,32.1,14.6,30.04,WNW,303,0.0,0.0,48,0.00,,---,0.00,VWS V14.01,2013-03-08 05:06:00,
2013-03-07 22:11:00,32.2,13.8,30.04,WNW,303,3.0,3.0,46,0.00,,---,0.00,VWS V14.01,2013-03-08 05:11:00,
2013-03-07 22:16:00,32.8,13.8,30.04,West,267,3.0,3.0,45,0.00,,---,0.00,VWS V14.01,2013-03-08 05:16:00,
2013-03-07 22:21:00,33.4,13.9,30.04,West,267,4.0,5.0,44,0.00,,---,0.00,VWS V14.01,2013-03-08 05:21:00,
2013-03-07 22:26:00,33.9,13.8,30.03,West,267,2.0,4.0,43,0.00,,---,0.00,VWS V14.01,2013-03-08 05:26:00,
2013-03-07 22:31:00,33.8,13.7,30.03,West,267,2.0,4.0,43,0.00,,---,0.00,VWS V14.01,2013-03-08 05:31:00,
2013-03-07 22:36:00,33.6,14.5,30.03,NNE,19,2.0,2.0,45,0.00,,---,0.00,VWS V14.01,2013-03-08 05:36:00,
2013-03-07 22:41:00,33.6,13.5,30.04,NNE,19,2.0,2.0,43,0.00,,---,0.00,VWS V14.01,2013-03-08 05:41:00,
2013-03-07 22:46:00,34.0,13.9,30.03,NNE,19,0.0,0.0,43,0.00,,---,0.00,VWS V14.01,2013-03-08 05:46:00,
2013-03-07 22:51:00,34.0,13.3,30.03,NNE,19,2.0,2.0,42,0.00,,---,0.00,VWS V14.01,2013-03-08 05:51:00,
2013-03-07 22:57:00,34.1,13.4,30.03,NNE,19,0.0,2.0,42,0.00,,---,0.00,VWS V14.01,2013-03-08 05:57:00,
2013-03-07 23:00:00,32.8,7.5,30.02,NNE,26,1.0,1.0,34,0.00,,---,0.00,VWS V14.01,2013-03-08 06:00:00,
2013-03-07 23:01:00,32.8,7.5,30.02,NNE,26,4.0,4.0,34,0.00,,---,0.00,VWS V14.01,2013-03-08 06:01:00,
2013-03-07 23:02:00,34.3,13.1,30.03,NNE,19,0.0,2.0,41,0.00,,---,0.00,VWS V14.01,2013-03-08 06:02:00,
2013-03-07 23:03:00,32.8,6.9,30.02,SSW,197,1.0,6.0,33,0.00,,---,0.00,VWS V14.01,2013-03-08 06:03:00,
2013-03-07 23:04:00,32.9,7.0,30.02,SSW,197,0.0,1.0,33,0.00,,---,0.00,VWS V14.01,2013-03-08 06:04:00,
2013-03-07 23:05:00,33.0,7.7,30.02,SSW,197,0.0,2.0,34,0.00,,---,0.00,VWS V14.01,2013-03-08 06:05:00,
2013-03-07 23:06:00,33.1,7.1,30.02,SSW,197,0.0,0.0,33,0.00,,---,0.00,VWS V14.01,2013-03-08 06:06:00,
2013-03-07 23:07:00,34.6,13.3,30.03,NNE,19,3.0,4.0,41,0.00,,---,0.00,VWS V14.01,2013-03-08 06:07:00,
2013-03-07 23:08:00,33.2,7.2,30.02,SSW,197,0.0,0.0,33,0.00,,---,0.00,VWS V14.01,2013-03-08 06:08:00,
2013-03-07 23:09:00,33.3,7.3,30.02,SSW,197,1.0,1.0,33,0.00,,---,0.00,VWS V14.01,2013-03-08 06:09:00,
2013-03-07 23:10:00,33.3,7.3,30.02,SSW,197,2.0,4.0,33,0.00,,---,0.00,VWS V14.01,2013-03-08 06:10:00,
2013-03-07 23:11:00,33.4,6.7,30.02,SSW,198,3.0,4.0,32,0.00,,---,0.00,VWS V14.01,2013-03-08 06:11:00,
2013-03-07 23:12:00,34.9,12.5,30.03,WSW,239,1.0,1.0,39,0.00,,---,0.00,VWS V14.01,2013-03-08 06:12:00,
2013-03-07 23:13:00,33.4,6.7,30.02,West,279,4.0,6.0,32,0.00,,---,0.00,VWS V14.01,2013-03-08 06:13:00,
2013-03-07 23:14:00,33.4,6.7,30.02,West,279,2.0,5.0,32,0.00,,---,0.00,VWS V14.01,2013-03-08 06:14:00,
2013-03-07 23:15:00,33.5,6.8,30.02,West,279,4.0,4.0,32,0.00,,---,0.00,VWS V14.01,2013-03-08 06:15:00,
2013-03-07 23:16:00,33.5,6.8,30.02,West,279,4.0,5.0,32,0.00,,---,0.00,VWS V14.01,2013-03-08 06:16:00,
2013-03-07 23:17:00,34.8,12.4,30.03,WSW,239,1.0,1.0,39,0.00,,---,0.00,VWS V14.01,2013-03-08 06:17:00,
2013-03-07 23:18:00,33.6,6.9,30.02,West,263,5.0,5.0,32,0.00,,---,0.00,VWS V14.01,2013-03-08 06:18:00,
2013-03-07 23:19:00,33.5,6.8,30.02,West,262,5.0,5.0,32,0.00,,---,0.00,VWS V14.01,2013-03-08 06:19:00,
2013-03-07 23:20:00,33.5,6.8,30.03,West,262,5.0,5.0,32,0.00,,---,0.00,VWS V14.01,2013-03-08 06:20:00,
2013-03-07 23:21:00,33.5,6.8,30.02,West,262,5.0,5.0,32,0.00,,---,0.00,VWS V14.01,2013-03-08 06:21:00,
2013-03-07 23:22:00,34.6,12.8,30.03,WSW,239,4.0,5.0,40,0.00,,---,0.00,VWS V14.01,2013-03-08 06:22:00,
2013-03-07 23:23:00,33.5,6.8,30.03,West,263,4.0,4.0,32,0.00,,---,0.00,VWS V14.01,2013-03-08 06:23:00,
2013-03-07 23:24:00,33.5,6.8,30.03,West,261,4.0,5.0,32,0.00,,---,0.00,VWS V14.01,2013-03-08 06:24:00,
2013-03-07 23:25:00,33.4,6.7,30.03,WSW,251,6.0,6.0,32,0.00,,---,0.00,VWS V14.01,2013-03-08 06:25:00,
2013-03-07 23:26:00,33.4,6.7,30.03,WSW,251,4.0,6.0,32,0.00,,---,0.00,VWS V14.01,2013-03-08 06:26:00,
2013-03-07 23:27:00,34.4,10.8,30.03,WSW,239,0.0,0.0,37,0.00,,---,0.00,VWS V14.01,2013-03-08 06:27:00,
2013-03-07 23:28:00,33.3,6.6,30.03,West,278,5.0,6.0,32,0.00,,---,0.00,VWS V14.01,2013-03-08 06:28:00,
2013-03-07 23:29:00,33.3,6.6,30.03,West,277,5.0,6.0,32,0.00,,---,0.00,VWS V14.01,2013-03-08 06:29:00,
2013-03-07 23:30:00,33.3,6.6,30.03,West,277,6.0,6.0,32,0.00,,---,0.00,VWS V14.01,2013-03-08 06:30:00,
2013-03-07 23:31:00,33.2,6.6,30.03,West,277,6.0,6.0,32,0.00,,---,0.00,VWS V14.01,2013-03-08 06:31:00,
2013-03-07 23:32:00,34.1,10.6,30.02,SW,236,3.0,5.0,37,0.00,,---,0.00,VWS V14.01,2013-03-08 06:32:00,
2013-03-07 23:33:00,33.2,7.2,30.02,West,281,6.0,7.0,33,0.00,,---,0.00,VWS V14.01,2013-03-08 06:33:00,
2013-03-07 23:34:00,33.2,7.2,30.02,WNW,292,6.0,7.0,33,0.00,,---,0.00,VWS V14.01,2013-03-08 06:34:00,
2013-03-07 23:35:00,33.1,7.1,30.02,WNW,294,6.0,7.0,33,0.00,,---,0.00,VWS V14.01,2013-03-08 06:35:00,
2013-03-07 23:36:00,33.1,6.5,30.02,WNW,298,4.0,6.0,32,0.00,,---,0.00,VWS V14.01,2013-03-08 06:36:00,
2013-03-07 23:37:00,34.0,9.2,30.02,SW,230,0.0,1.0,35,0.00,,---,0.00,VWS V14.01,2013-03-08 06:37:00,
2013-03-07 23:38:00,32.9,7.0,30.02,WNW,298,2.0,4.0,33,0.00,,---,0.00,VWS V14.01,2013-03-08 06:38:00,
2013-03-07 23:39:00,32.8,6.2,30.02,WNW,298,2.0,5.0,32,0.00,,---,0.00,VWS V14.01,2013-03-08 06:39:00,
2013-03-07 23:40:00,32.7,6.1,30.02,WNW,298,0.0,2.0,32,0.00,,---,0.00,VWS V14.01,2013-03-08 06:40:00,
2013-03-07 23:41:00,32.5,5.9,30.02,WNW,298,0.0,1.0,32,0.00,,---,0.00,VWS V14.01,2013-03-08 06:41:00,
2013-03-07 23:42:00,33.8,9.1,30.03,NNE,22,0.0,0.0,35,0.00,,---,0.00,VWS V14.01,2013-03-08 06:42:00,
2013-03-07 23:43:00,32.3,6.4,30.02,WNW,298,0.0,0.0,33,0.00,,---,0.00,VWS V14.01,2013-03-08 06:43:00,
2013-03-07 23:44:00,32.2,6.3,30.02,WNW,298,0.0,0.0,33,0.00,,---,0.00,VWS V14.01,2013-03-08 06:44:00,
2013-03-07 23:45:00,32.2,5.7,30.02,WNW,298,0.0,0.0,32,0.00,,---,0.00,VWS V14.01,2013-03-08 06:45:00,
2013-03-07 23:46:00,32.1,5.6,30.02,WNW,298,0.0,0.0,32,0.00,,---,0.00,VWS V14.01,2013-03-08 06:46:00,
2013-03-07 23:47:00,33.5,8.8,30.02,NNE,22,2.0,2.0,35,0.00,,---,0.00,VWS V14.01,2013-03-08 06:47:00,
2013-03-07 23:48:00,32.1,5.6,30.02,WNW,298,0.0,0.0,32,0.00,,---,0.00,VWS V14.01,2013-03-08 06:48:00,
2013-03-07 23:49:00,32.1,5.6,30.02,WNW,298,0.0,0.0,32,0.00,,---,0.00,VWS V14.01,2013-03-08 06:49:00,
2013-03-07 23:50:00,32.1,5.6,30.02,WNW,298,0.0,0.0,32,0.00,,---,0.00,VWS V14.01,2013-03-08 06:50:00,
2013-03-07 23:51:00,32.1,4.9,30.02,WNW,298,0.0,0.0,31,0.00,,---,0.00,VWS V14.01,2013-03-08 06:51:00,
2013-03-07 23:52:00,33.1,8.4,30.02,NNE,26,1.0,2.0,35,0.00,,---,0.00,VWS V14.01,2013-03-08 06:52:00,
2013-03-07 23:53:00,32.3,5.1,30.02,WNW,298,0.0,0.0,31,0.00,,---,0.00,VWS V14.01,2013-03-08 06:53:00,
2013-03-07 23:54:00,32.4,5.2,30.02,WNW,298,0.0,0.0,31,0.00,,---,0.00,VWS V14.01,2013-03-08 06:54:00,
2013-03-07 23:55:00,32.4,5.2,30.02,WNW,298,1.0,1.0,31,0.00,,---,0.00,VWS V14.01,2013-03-08 06:55:00,
2013-03-07 23:56:00,32.5,5.2,30.02,WNW,298,0.0,2.0,31,0.00,,---,0.00,VWS V14.01,2013-03-08 06:56:00,
2013-03-07 23:57:00,32.9,8.3,30.02,NNE,26,0.0,0.0,35,0.00,,---,0.00,VWS V14.01,2013-03-08 06:57:00,
2013-03-07 23:58:00,32.5,5.2,30.02,WNW,298,0.0,0.0,31,0.00,,---,0.00,VWS V14.01,2013-03-08 06:58:00,
2013-03-07 23:59:00,32.5,5.9,30.02,WNW,298,0.0,0.0,32,0.00,,---,0.00,VWS V14.01,2013-03-08 06:59:00,